Regional Weather Roundup
Issued by NWS

Home | Current Version | Previous Version | Graphics & Text | Print | Product List | Glossary On
Versions: 1 2 3 4 5 6 7 8 9 10 11 12 13 14 15 16 17 18 19 20 21 22 23 24 25 26 27 28 29 30 31 32 33 34 35 36 37 38 39 40 41 42 43 44 45 46 47 48 49 50
000
ASUS43 KLOT 041600
RWRIL

ILLINOIS REGIONAL WEATHER ROUNDUP
NATIONAL WEATHER SERVICE CHICAGO/ROMEOVILLE IL
1100 AM CDT MON MAY 04 2015

NOTE: "FAIR" INDICATES FEW OR NO CLOUDS BELOW 12,000 FEET WITH NO
SIGNIFICANT WEATHER AND/OR OBSTRUCTIONS TO VISIBILITY.

* THESE STATIONS ARE NOT UNDER NWS QUALITY CONTROL. THEY ALSO MAY NOT
  REPORT WEATHER SUCH AS PRECIPITATION OR FOG.

ILZ001-002-007-009-015-016-024-041700-
NORTHWEST ILLINOIS

CITY           SKY/WX    TMP DP  RH WIND       PRES   REMARKS
MOLINE         PTSUNNY   72  61  68 VRB6      30.08R
$$

ILZ003-004-008-010-011-017-018-041700-
NORTH CENTRAL ILLINOIS

CITY           SKY/WX    TMP DP  RH WIND       PRES   REMARKS
ROCKFORD       CLOUDY    67  57  70 N7        30.11R
$$

ILZ005-006-012>014-019>023-041700-
NORTHEAST ILLINOIS

CITY           SKY/WX    TMP DP  RH WIND       PRES   REMARKS
CHICAGO-OHARE  CLOUDY    68  58  70 W12       30.09R
CHICAGO-MIDWAY CLOUDY    71  59  65 W7        30.09R
AURORA         PTSUNNY   69  59  70 W6        30.10R
WAUKEGAN       NOT AVBL
DUPAGE AIRPORT CLOUDY    68  60  75 W10       30.10R
WHEELING       CLOUDY    69  57  65 NW10      30.10R
NORTHERLY ISL    N/A     68  56  65 W8          N/A
$$

LMZ740>746-041700-
SOUTHERN LAKE MICHIGAN

STATION/POSITION SKY/WX   TEMP    WIND        PRES    VSBY  WAVE
                          AIR SEA DIR/SP/G                  HT/PER
                          (F)     (DEG/KT/KT) (MB)    (MI)  (FT/S)
HARRISON CRIB              65     260/ 12/ 15   N/A
BURNHAM HARBOR             67     280/  9/ 14   N/A
CALUMET HARBOR             68     230/  3/  5   N/A
BURNS HARBOR               58     280/  5/  6 1019.0R
MICHIGAN CITY              62     230/ 12/ 12   N/A
MICHIGAN CITY 6N           55 49  250/  4/  6   N/A           1/ 2
ST. JOSEPH                 51 47  240/  4/  6   N/A           1/ 4
$$

ILZ025>027-034>036-040-047-049-050-058-095>099-041700-
WEST-CENTRAL ILLINOIS

CITY           SKY/WX    TMP DP  RH WIND       PRES   REMARKS
$$

ILZ028>032-037-038-041>044-048-051>054-059>061-041700-
CENTRAL ILLINOIS

CITY           SKY/WX    TMP DP  RH WIND       PRES   REMARKS
PEORIA         NOT AVBL
SPRINGFIELD    CLOUDY    76  60  57 SW12      30.09R
TAYLORVILLE    NOT AVBL
$$

ILZ033-039-045-046-055>057-062-063-041700-
EAST-CENTRAL ILLINOIS

CITY           SKY/WX    TMP DP  RH WIND       PRES   REMARKS
CHAMPAIGN      CLOUDY    70  62  76 SW16      30.11R
$$

ILZ079-100>102-041700-
SOUTHWEST ILLINOIS

CITY           SKY/WX    TMP DP  RH WIND       PRES   REMARKS
CAHOKIA*       PTSUNNY   77  60  55 SW10      30.12S
$$

ILZ064>066-069>071-074>076-080>082-084>086-088>090-092>094-041700-
SOUTH-CENTRAL ILLINOIS

CITY           SKY/WX    TMP DP  RH WIND       PRES   REMARKS
CARBONDALE     PTSUNNY   77  60  55 SW9       30.17R
MARION         PTSUNNY   77  61  57 SW9       30.18S
$$

ILZ067-068-072-073-078-083-087-091-041700-
SOUTHEAST ILLINOIS

CITY           SKY/WX    TMP DP  RH WIND       PRES   REMARKS
LAWRENCEVILLE  PTSUNNY   76  56  49 SW3       30.16S
FLORA*         PTSUNNY   76  56  51 W7        30.16R
$$

ABBREVIATIONS USED IN REMARKS
   TC - TEMPERATURE IN CELSIUS
  WCI - WIND CHILL INDEX
   HX - HEAT INDEX
  VSB - VISIBILITY
$$




USA.gov is the U.S. government's official web portal to all federal, state and local government web resources and services.